| time (UTC) | temp F | wind direction | speed knots | gust knots | rain 1hr in | rain 24hr in | rain mn in | humidity % | barometer mb |
| 20260506001520 | 31 | 0.0 | 0.0 | 0.00 | 0.00 | 0.00 | 88 | 1006.2 | |
| 20260506000540 | 31 | 0.0 | 0.0 | 0.00 | 0.00 | 0.00 | 88 | 1006.1 | |
| 20260505235520 | 31 | 0.0 | 0.0 | 0.00 | 0.00 | 0.00 | 88 | 1006.1 | |
| 20260505234520 | 31 | 0.0 | 0.0 | 0.00 | 0.00 | 0.00 | 88 | 1006.1 | |
| 20260505233520 | 31 | 0.0 | 0.0 | 0.00 | 0.00 | 0.00 | 88 | 1006.0 | |
| 20260505232520 | 32 | 0.0 | 0.0 | 0.00 | 0.00 | 0.00 | 87 | 1006.0 | |
| 20260505231520 | 32 | 0.0 | 0.0 | 0.00 | 0.00 | 0.00 | 86 | 1005.8 | |
| 20260505230545 | 32 | 0.0 | 0.0 | 0.00 | 0.00 | 0.00 | 86 | 1005.8 | |
| 20260505225540 | 33 | 0.0 | 0.0 | 0.00 | 0.00 | 0.00 | 85 | 1005.7 | |
| 20260505224519 | 33 | 0.0 | 0.0 | 0.00 | 0.00 | 0.00 | 84 | 1005.8 | |
| 20260505223540 | 34 | 0.0 | 0.0 | 0.00 | 0.00 | 0.00 | 83 | 1005.8 | |
| 20260505222520 | 34 | 0.0 | 0.0 | 0.00 | 0.00 | 0.00 | 82 | 1005.7 | |
| 20260505221520 | 35 | 0.0 | 0.0 | 0.00 | 0.00 | 0.00 | 82 | 1005.7 | |
| 20260505220540 | 36 | 0.0 | 0.0 | 0.00 | 0.00 | 0.00 | 80 | 1005.6 | |
| 20260505215540 | 36 | 0.0 | 0.0 | 0.00 | 0.00 | 0.00 | 79 | 1005.5 | |
| 20260505214519 | 37 | 0.0 | 0.0 | 0.00 | 0.00 | 0.00 | 77 | 1005.4 | |
| 20260505213520 | 38 | 0.0 | 0.0 | 0.00 | 0.00 | 0.00 | 75 | 1005.4 | |
| 20260505212519 | 38 | 0.0 | 0.0 | 0.00 | 0.00 | 0.00 | 74 | 1005.3 | |
| 20260505211520 | 39 | 0.0 | 0.0 | 0.00 | 0.00 | 0.00 | 73 | 1005.2 | |
| 20260505210520 | 39 | 0.0 | 0.0 | 0.00 | 0.00 | 0.00 | 72 | 1005.1 | |
| 20260505205540 | 40 | 0.0 | 0.0 | 0.00 | 0.00 | 0.00 | 72 | 1005.1 | |
| 20260505204519 | 40 | 0.0 | 0.0 | 0.00 | 0.00 | 0.00 | 70 | 1004.9 | |
| 20260505203601 | 41 | 0.0 | 0.0 | 0.00 | 0.00 | 0.00 | 69 | 1004.8 | |
| 20260505202523 | 42 | 0.0 | 0.0 | 0.00 | 0.00 | 0.00 | 66 | 1004.8 | |
| 20260505201519 | 42 | 0.0 | 0.0 | 0.00 | 0.00 | 0.00 | 62 | 1004.7 | |
| 20260505200519 | 43 | 0.0 | 0.0 | 0.00 | 0.00 | 0.00 | 62 | 1004.6 | |
| 20260505195519 | 42 | 0.0 | 0.0 | 0.00 | 0.00 | 0.00 | 58 | 1004.6 | |
| 20260505194520 | 43 | 0.0 | 0.0 | 0.00 | 0.00 | 0.00 | 56 | 1004.4 | |
| 20260505193520 | 44 | 0.0 | 0.0 | 0.00 | 0.00 | 0.00 | 54 | 1004.3 | |
| 20260505192520 | 45 | 0.0 | 0.0 | 0.00 | 0.00 | 0.00 | 53 | 1004.2 | |
| 20260505191519 | 45 | 0.0 | 0.0 | 0.00 | 0.00 | 0.00 | 50 | 1004.0 | |
| 20260505190519 | 46 | 0.0 | 0.0 | 0.00 | 0.00 | 0.00 | 48 | 1004.0 | |
| 20260505185519 | 46 | 0.0 | 0.0 | 0.00 | 0.00 | 0.00 | 47 | 1003.9 | |
| 20260505184519 | 47 | 0.0 | 0.0 | 0.00 | 0.00 | 0.00 | 46 | 1003.9 | |
| 20260505183519 | 47 | 0.0 | 1.7 | 0.00 | 0.00 | 0.00 | 45 | 1003.7 | |
| 20260505182519 | 47 | 293 | 0.9 | 1.7 | 0.00 | 0.00 | 0.00 | 44 | 1003.7 |
| 20260505181539 | 48 | 293 | 0.9 | 2.6 | 0.00 | 0.00 | 0.00 | 44 | 1003.5 |
| 20260505180539 | 48 | 270 | 0.9 | 4.3 | 0.00 | 0.00 | 0.00 | 43 | 1003.4 |
| 20260505175519 | 48 | 293 | 0.9 | 3.5 | 0.00 | 0.00 | 0.00 | 42 | 1003.3 |
| 20260505174519 | 49 | 0.0 | 2.6 | 0.00 | 0.00 | 0.00 | 41 | 1003.2 | |
| 20260505173519 | 49 | 293 | 0.9 | 1.7 | 0.00 | 0.00 | 0.00 | 40 | 1003.1 |
| 20260505172519 | 49 | 293 | 1.7 | 4.3 | 0.00 | 0.00 | 0.00 | 39 | 1003.0 |
| 20260505171519 | 49 | 270 | 0.9 | 2.6 | 0.00 | 0.00 | 0.00 | 40 | 1002.8 |
| 20260505170520 | 49 | 270 | 1.7 | 5.2 | 0.00 | 0.00 | 0.00 | 37 | 1002.8 |
| 20260505165520 | 49 | 270 | 3.5 | 7.0 | 0.00 | 0.00 | 0.00 | 35 | 1002.7 |
| 20260505164519 | 50 | 293 | 1.7 | 4.3 | 0.00 | 0.00 | 0.00 | 37 | 1002.7 |
| 20260505163519 | 50 | 270 | 3.5 | 6.1 | 0.00 | 0.00 | 0.00 | 36 | 1002.7 |
| 20260505162519 | 50 | 293 | 3.5 | 7.8 | 0.00 | 0.00 | 0.00 | 36 | 1002.6 |
| 20260505161519 | 50 | 293 | 2.6 | 7.8 | 0.00 | 0.00 | 0.00 | 36 | 1002.6 |
| 20260505160523 | 50 | 293 | 3.5 | 7.8 | 0.00 | 0.00 | 0.00 | 35 | 1002.6 |
| 20260505152520 | 52 | 293 | 3.5 | 10.4 | 0.00 | 0.00 | 0.00 | 33 | 1002.5 |
| 20260505151522 | 52 | 293 | 3.5 | 8.7 | 0.00 | 0.00 | 0.00 | 32 | 1002.4 |
| 20260505150519 | 52 | 270 | 5.2 | 11.3 | 0.00 | 0.00 | 0.00 | 32 | 1002.4 |
| 20260505140521 | 52 | 270 | 4.3 | 7.0 | 0.00 | 0.00 | 0.00 | 35 | 1002.3 |
| 20260505124539 | 50 | 270 | 5.2 | 7.8 | 0.00 | 0.00 | 0.00 | 35 | 1002.3 |
| 20260505123519 | 51 | 270 | 5.2 | 10.4 | 0.00 | 0.00 | 0.00 | 34 | 1002.1 |
| 20260505122521 | 51 | 270 | 5.2 | 8.7 | 0.00 | 0.00 | 0.00 | 37 | 1002.0 |
| 20260505121536 | 50 | 270 | 4.3 | 10.4 | 0.00 | 0.00 | 0.00 | 36 | 1002.1 |
| 20260505120519 | 51 | 270 | 5.2 | 10.4 | 0.00 | 0.00 | 0.00 | 34 | 1002.1 |
| 20260505115539 | 51 | 270 | 5.2 | 12.2 | 0.00 | 0.00 | 0.00 | 36 | 1002.0 |
| 20260505114518 | 51 | 270 | 4.3 | 9.6 | 0.00 | 0.00 | 0.00 | 36 | 1001.9 |
| 20260505113519 | 51 | 270 | 2.6 | 10.4 | 0.00 | 0.00 | 0.00 | 39 | 1001.9 |
| 20260505112539 | 50 | 270 | 6.1 | 11.3 | 0.00 | 0.00 | 0.00 | 38 | 1002.0 |
| 20260505111518 | 51 | 270 | 4.3 | 9.6 | 0.00 | 0.00 | 0.00 | 41 | 1002.0 |
| 20260505110520 | 51 | 293 | 4.3 | 11.3 | 0.00 | 0.00 | 0.00 | 43 | 1001.9 |
| 20260505101519 | 49 | 270 | 6.1 | 10.4 | 0.00 | 0.00 | 0.00 | 44 | 1001.8 |
| 20260505100518 | 49 | 270 | 4.3 | 8.7 | 0.00 | 0.00 | 0.00 | 45 | 1001.8 |
| 20260505095519 | 49 | 293 | 5.2 | 13.0 | 0.00 | 0.00 | 0.00 | 53 | 1001.7 |
| 20260505094604 | 48 | 270 | 5.2 | 12.2 | 0.00 | 0.00 | 0.00 | 53 | 1001.6 |
| 20260505093518 | 48 | 270 | 4.3 | 13.9 | 0.00 | 0.00 | 0.00 | 55 | 1001.7 |
| 20260505092519 | 48 | 270 | 4.3 | 10.4 | 0.00 | 0.00 | 0.00 | 57 | 1001.6 |
| 20260505091519 | 47 | 270 | 5.2 | 11.3 | 0.00 | 0.00 | 0.00 | 58 | 1001.6 |
| 20260505090519 | 48 | 270 | 5.2 | 11.3 | 0.00 | 0.00 | 0.00 | 57 | 1001.5 |
| 20260505085538 | 48 | 270 | 4.3 | 9.6 | 0.00 | 0.00 | 0.00 | 61 | 1001.4 |
| 20260505084519 | 48 | 293 | 3.5 | 7.8 | 0.00 | 0.00 | 0.00 | 61 | 1001.2 |
| 20260505083519 | 48 | 270 | 3.5 | 9.6 | 0.00 | 0.00 | 0.00 | 63 | 1001.2 |
| 20260505082519 | 47 | 270 | 6.1 | 12.2 | 0.00 | 0.00 | 0.00 | 63 | 1001.0 |
| 20260505081519 | 48 | 270 | 2.6 | 9.6 | 0.00 | 0.00 | 0.00 | 63 | 1001.1 |
| 20260505080519 | 47 | 270 | 3.5 | 8.7 | 0.00 | 0.00 | 0.00 | 65 | 1000.9 |
| 20260505075519 | 46 | 293 | 3.5 | 8.7 | 0.00 | 0.00 | 0.00 | 65 | 1000.9 |
| 20260505074539 | 46 | 270 | 5.2 | 12.2 | 0.00 | 0.00 | 0.00 | 66 | 1000.8 |
| 20260505073520 | 45 | 270 | 3.5 | 7.8 | 0.00 | 0.00 | 0.00 | 69 | 1000.8 |
| 20260505072518 | 45 | 270 | 5.2 | 10.4 | 0.00 | 0.00 | 0.00 | 69 | 1000.7 |
| 20260505071538 | 45 | 270 | 4.3 | 8.7 | 0.00 | 0.00 | 0.00 | 72 | 1000.7 |
| 20260505070519 | 45 | 270 | 3.5 | 7.0 | 0.00 | 0.01 | 0.00 | 72 | 1000.5 |
| 20260505065538 | 45 | 270 | 5.2 | 9.6 | 0.00 | 0.01 | 0.00 | 73 | 1000.4 |
| 20260505064519 | 45 | 270 | 3.5 | 9.6 | 0.00 | 0.01 | 0.00 | 75 | 1000.3 |
| 20260505063519 | 44 | 270 | 5.2 | 9.6 | 0.00 | 0.02 | 0.00 | 75 | 1000.2 |
| 20260505062518 | 45 | 270 | 3.5 | 8.7 | 0.00 | 0.02 | 0.00 | 75 | 1000.1 |
| 20260505061518 | 44 | 293 | 3.5 | 6.1 | 0.00 | 0.04 | 0.00 | 75 | 1000.2 |
| 20260505060518 | 44 | 293 | 1.7 | 5.2 | 0.00 | 0.06 | 0.00 | 78 | 1000.0 |
| 20260505055520 | 44 | 270 | 3.5 | 6.1 | 0.00 | 0.06 | 0.00 | 79 | 999.8 |
| 20260505054519 | 43 | 270 | 2.6 | 5.2 | 0.00 | 0.08 | 0.00 | 80 | 999.8 |
| 20260505053518 | 43 | 293 | 3.5 | 8.7 | 0.00 | 0.10 | 0.00 | 79 | 999.7 |
| 20260505052520 | 44 | 293 | 2.6 | 6.1 | 0.00 | 0.11 | 0.00 | 78 | 999.5 |
| 20260505051520 | 44 | 293 | 1.7 | 5.2 | 0.00 | 0.13 | 0.00 | 79 | 999.5 |
| 20260505050518 | 44 | 270 | 2.6 | 7.0 | 0.00 | 0.16 | 0.00 | 78 | 999.3 |
| 20260505041518 | 45 | 293 | 2.6 | 7.0 | 0.00 | 0.24 | 0.00 | 75 | 999.1 |
| 20260505040520 | 45 | 293 | 2.6 | 6.1 | 0.00 | 0.26 | 0.00 | 74 | 999.0 |
| 20260505035520 | 45 | 293 | 3.5 | 7.8 | 0.00 | 0.28 | 0.00 | 74 | 998.8 |
| 20260505034518 | 46 | 270 | 1.7 | 5.2 | 0.00 | 0.29 | 0.00 | 78 | 998.7 |
| 20260505033518 | 46 | 270 | 5.2 | 14.8 | 0.00 | 0.30 | 0.00 | 78 | 998.6 |
| 20260505032520 | 46 | 270 | 4.3 | 8.7 | 0.00 | 0.30 | 0.00 | 78 | 998.4 |
| 20260505031518 | 46 | 270 | 3.5 | 7.0 | 0.00 | 0.30 | 0.00 | 77 | 998.3 |
| 20260505030519 | 46 | 270 | 2.6 | 7.8 | 0.00 | 0.30 | 0.00 | 77 | 998.2 |
| 20260505025518 | 46 | 270 | 3.5 | 7.0 | 0.00 | 0.30 | 0.00 | 76 | 998.1 |
| 20260505024520 | 46 | 270 | 3.5 | 7.0 | 0.00 | 0.30 | 0.00 | 75 | 998.1 |
| 20260505023521 | 46 | 293 | 3.5 | 7.8 | 0.00 | 0.30 | 0.00 | 74 | 998.0 |
| 20260505022522 | 47 | 293 | 4.3 | 7.8 | 0.00 | 0.30 | 0.00 | 72 | 997.9 |
| 20260505021540 | 47 | 293 | 4.3 | 10.4 | 0.00 | 0.30 | 0.00 | 71 | 997.9 |
| 20260505020520 | 47 | 270 | 4.3 | 10.4 | 0.00 | 0.30 | 0.00 | 70 | 997.7 |
| 20260505015520 | 47 | 293 | 4.3 | 7.8 | 0.00 | 0.30 | 0.00 | 69 | 997.8 |
| 20260505014519 | 48 | 270 | 4.3 | 9.6 | 0.00 | 0.30 | 0.00 | 67 | 997.7 |
| 20260505013518 | 48 | 270 | 4.3 | 9.6 | 0.00 | 0.30 | 0.00 | 66 | 997.7 |
| 20260505012520 | 48 | 270 | 3.5 | 9.6 | 0.00 | 0.30 | 0.00 | 65 | 997.6 |
| 20260505011520 | 48 | 248 | 5.2 | 12.2 | 0.00 | 0.30 | 0.00 | 63 | 997.6 |
| 20260505010520 | 48 | 270 | 2.6 | 7.0 | 0.00 | 0.30 | 0.00 | 62 | 997.5 |
| 20260505005520 | 48 | 248 | 2.6 | 7.8 | 0.00 | 0.30 | 0.00 | 60 | 997.4 |
| 20260505004520 | 48 | 270 | 3.5 | 8.7 | 0.00 | 0.30 | 0.00 | 59 | 997.4 |
| 20260505003524 | 49 | 248 | 3.5 | 10.4 | 0.00 | 0.30 | 0.00 | 58 | 997.3 |
| 20260505002520 | 49 | 248 | 4.3 | 12.2 | 0.00 | 0.30 | 0.00 | 57 | 997.4 |